Total_Precipitation_Accumulation
2.69 2.74 2.75 2.82 2.71 2.54 2.53 2.66 2.81 2.59 2.38 2.16 1.97 1.77 1.80 1.78 1.89 1.66 1.63 1.67 1.61 1.48 1.34 1.25 1.24 1.39 1.72 2.12 2.35 2.33 2.39 2.66 3.10 3.45 3.29 3.19 3.13 3.12
2.40 2.45 2.49 2.54 2.54 2.49 2.48 2.54 2.57 2.55 2.42 2.16 1.88 1.63 1.67 1.71 1.89 1.63 1.69 1.91 1.80 1.62 1.38 1.30 1.26 1.27 1.39 1.53 1.65 1.61 1.61 1.74 2.11 2.78 3.05 3.05 3.08 3.19
2.08 2.12 2.24 2.32 2.51 2.54 2.50 2.49 2.49 2.42 2.28 2.14 1.88 1.67 1.64 1.74 1.82 1.69 1.72 1.78 1.70 1.66 1.49 1.39 1.27 1.32 1.42 1.44 1.49 1.42 1.32 1.33 1.43 1.69 2.05 2.27 2.46 2.73
1.83 1.88 2.01 2.08 2.22 2.34 2.44 2.36 2.39 2.37 2.33 2.28 2.05 1.84 1.75 1.75 1.84 1.80 1.67 1.64 1.66 1.74 1.55 1.44 1.34 1.27 1.38 1.39 1.48 1.55 1.44 1.31 1.25 1.29 1.45 1.66 1.88 2.12
1.60 1.68 1.76 1.86 1.96 2.06 2.15 2.23 2.27 2.26 2.35 2.31 2.12 1.94 1.78 1.73 1.78 1.72 1.65 1.71 1.61 1.72 1.68 1.53 1.46 1.35 1.36 1.37 1.36 1.49 1.49 1.41 1.26 1.25 1.32 1.44 1.59 1.75
1.40 1.39 1.43 1.47 1.61 1.75 1.85 1.98 2.14 2.28 2.37 2.38 2.23 1.99 1.81 1.77 1.85 1.89 1.86 1.74 1.73 1.64 1.68 1.63 1.61 1.56 1.44 1.41 1.32 1.33 1.43 1.48 1.32 1.25 1.25 1.27 1.30 1.37
1.47 1.35 1.25 1.27 1.42 1.54 1.60 1.82 2.01 2.16 2.29 2.35 2.25 2.08 1.92 1.85 1.81 1.81 1.88 1.96 1.95 1.79 1.72 1.61 1.56 1.42 1.29 1.31 1.30 1.25 1.25 1.28 1.24 1.13 1.07 1.02 1.03 1.09
1.40 1.39 1.39 1.37 1.26 1.25 1.35 1.51 1.73 1.89 2.04 2.15 2.17 2.00 1.82 1.79 1.86 1.89 1.89 1.96 1.99 1.83 1.76 1.80 1.73 1.60 1.44 1.29 1.36 1.29 1.24 1.22 1.23 1.20 1.12 1.04 1.04 1.06
1.36 1.36 1.38 1.36 1.45 1.31 1.29 1.31 1.32 1.47 1.70 1.90 1.92 1.82 1.87 1.82 1.82 1.79 1.77 1.76 1.79 1.81 1.81 1.82 1.77 1.67 1.50 1.41 1.50 1.43 1.38 1.31 1.27 1.26 1.24 1.15 1.08 1.04
1.47 1.50 1.54 1.55 1.48 1.61 1.58 1.47 1.35 1.31 1.41 1.33 1.39 1.68 1.83 1.91 1.94 1.95 1.98 1.88 1.79 1.81 1.75 1.77 1.64 1.57 1.48 1.39 1.47 1.40 1.36 1.32 1.27 1.24 1.26 1.27 1.26 1.22
1.50 1.47 1.52 1.52 1.77 1.89 1.72 1.62 1.50 1.42 1.60 1.62 1.59 1.67 1.79 1.83 1.84 1.89 1.95 1.91 1.81 1.73 1.63 1.57 1.50 1.56 1.62 1.52 1.48 1.56 1.52 1.43 1.33 1.33 1.33 1.33 1.36 1.38
1.57 1.51 1.70 1.63 1.70 1.71 1.60 1.74 1.64 1.49 1.42 1.39 1.37 1.43 1.47 1.57 1.66 1.64 1.77 1.82 1.73 1.75 1.58 1.53 1.52 1.62 1.67 1.56 1.42 1.42 1.50 1.56 1.47 1.39 1.41 1.42 1.43 1.34
1.50 1.49 1.47 1.66 1.54 1.54 1.56 1.61 1.74 1.70 1.66 1.66 1.55 1.45 1.40 1.41 1.41 1.45 1.59 1.69 1.70 1.68 1.54 1.52 1.56 1.63 1.57 1.45 1.43 1.35 1.31 1.34 1.32 1.25 1.26 1.35 1.41 1.33
1.34 1.21 1.23 1.41 1.31 1.31 1.32 1.42 1.64 1.68 1.61 1.66 1.61 1.49 1.38 1.31 1.29 1.34 1.47 1.55 1.55 1.55 1.59 1.58 1.59 1.60 1.60 1.41 1.35 1.37 1.36 1.35 1.33 1.24 1.14 1.29 1.36 1.40
1.17 1.21 1.15 1.14 1.13 1.07 1.13 1.28 1.38 1.54 1.62 1.61 1.48 1.36 1.32 1.32 1.33 1.34 1.35 1.46 1.50 1.48 1.47 1.45 1.52 1.60 1.65 1.52 1.39 1.35 1.44 1.49 1.43 1.35 1.26 1.19 1.18 1.23
1.01 0.96 0.97 0.98 0.99 0.97 0.98 1.02 1.11 1.39 1.62 1.56 1.44 1.36 1.36 1.40 1.46 1.48 1.45 1.42 1.49 1.48 1.48 1.48 1.45 1.50 1.49 1.40 1.42 1.43 1.44 1.50 1.46 1.45 1.41 1.34 1.23 1.16
1.19 1.08 1.03 0.97 0.96 0.96 0.96 1.03 1.17 1.33 1.50 1.44 1.46 1.42 1.42 1.48 1.50 1.53 1.62 1.59 1.53 1.45 1.51 1.61 1.65 1.63 1.56 1.51 1.49 1.45 1.52 1.51 1.50 1.52 1.54 1.48 1.34 1.20
1.30 1.21 1.23 1.18 1.14 1.11 1.07 1.06 1.10 1.19 1.29 1.38 1.42 1.45 1.47 1.51 1.51 1.52 1.58 1.62 1.58 1.50 1.45 1.53 1.71 1.85 1.83 1.68 1.51 1.46 1.56 1.63 1.65 1.64 1.59 1.50 1.35 1.26
1.18 1.18 1.21 1.19 1.15 1.13 1.11 1.09 1.10 1.13 1.20 1.31 1.45 1.54 1.56 1.59 1.64 1.64 1.63 1.63 1.56 1.49 1.46 1.49 1.65 1.84 1.93 1.73 1.49 1.38 1.46 1.56 1.70 1.66 1.57 1.46 1.31 1.22
0.97 1.07 1.12 1.16 1.15 1.14 1.10 1.07 1.07 1.09 1.15 1.21 1.33 1.46 1.62 1.74 1.76 1.76 1.77 1.77 1.72 1.61 1.56 1.54 1.53 1.63 1.77 1.70 1.51 1.34 1.37 1.49 1.59 1.59 1.48 1.41 1.35 1.38
0.78 0.89 0.97 1.03 1.03 1.05 1.09 1.12 1.13 1.14 1.13 1.17 1.21 1.26 1.38 1.57 1.70 1.76 1.82 1.97 1.94 1.81 1.72 1.63 1.59 1.69 1.63 1.65 1.56 1.27 1.23 1.34 1.43 1.46 1.46 1.50 1.45 1.36
0.77 0.83 0.90 0.96 1.02 1.06 1.09 1.10 1.11 1.11 1.12 1.16 1.18 1.22 1.28 1.37 1.48 1.57 1.66 1.78 1.86 1.88 1.83 1.72 1.67 1.74 1.74 1.77 1.61 1.36 1.29 1.27 1.32 1.43 1.45 1.52 1.51 1.39
0.76 0.78 0.81 0.87 0.93 1.02 1.15 1.22 1.19 1.16 1.16 1.20 1.27 1.30 1.33 1.37 1.38 1.44 1.50 1.59 1.68 1.73 1.78 1.79 1.72 1.70 1.69 1.65 1.63 1.56 1.46 1.42 1.37 1.34 1.28 1.37 1.38 1.30